Weather observations for the past three days for
Delta Junction/Ft Greely, Allen Army Airfield
Imperial (Metric)
Date Time (akdt) Wind (mph) Vis. (mi.) Weather Sky Cond. Temperature (ºF) Relative Humidity Wind Chill (°F) Heat Index (°F) Pressure Precipitation (in)
Air Dwpt 6 hour altimeter (in) sea level (mb) 1 hr 3 hr 6 hr
Max. Min.
15 01:53 Calm 10.00 Fair CLR 54 48 80% 29.65 1004.0
15 00:53 W 7 10.00 Fair CLR 54 48.9 83% 29.64 1003.5
14 23:53 S 16 G 29 10.00 Fair CLR 61 37.9 43% 29.6 1002.1
14 22:53 S 25 G 36 10.00 Fair and Breezy CLR 63 37 38% 29.58 1001.4
14 21:53 W 9 10.00 Fair CLR 60.1 52 70 60.1 75% 29.57 1001.4
14 20:53 W 13 10.00 Mostly Cloudy FEW035 SCT065 SCT100 SCT140 BKN200 63 50 63% 29.54 1000.4
14 19:53 S 32 G 49 10.00 Mostly Cloudy and Windy FEW035 SCT065 SCT100 SCT140 BKN200 69.1 39 33% 29.52 999.1
14 18:53 S 25 G 40 10.00 Partly Cloudy and Breezy FEW035 SCT065 SCT100 SCT140 SCT200 70 41 35% 29.48 998.0
14 17:53 S 24 G 43 10.00 Partly Cloudy and Breezy FEW035 SCT065 SCT100 SCT140 SCT200 70 43 38% 29.49 998.1
14 16:53 S 32 G 46 10.00 Mostly Cloudy and Windy SCT035 SCT065 SCT100 SCT140 BKN200 70 42.1 37% 29.49 998.1
14 15:53 S 26 G 46 10.00 Mostly Cloudy and Windy SCT035 SCT065 BKN100 BKN140 BKN200 69.1 42.1 70 57.9 38% 29.5 998.5
14 14:53 S 26 G 46 10.00 Mostly Cloudy and Windy SCT035 SCT065 BKN100 BKN140 BKN200 70 42.1 37% 29.5 998.4
14 13:53 S 26 G 40 10.00 Mostly Cloudy and Windy SCT035 SCT065 BKN100 BKN140 BKN200 70 41 35% 29.49 998.2
14 12:53 S 22 G 33 10.00 Mostly Cloudy and Breezy SCT027 SCT055 BKN095 BKN140 BKN200 69.1 43 39% 29.49 998.1
14 11:53 W 6 10.00 Mostly Cloudy SCT027 BKN045 BKN060 BKN140 BKN200 62.1 50 65% 29.49 998.4
14 10:53 NE 6 10.00 Mostly Cloudy SCT020 BKN034 BKN085 BKN140 61 51.1 70% 29.49 998.3
14 09:53 NW 5 10.00 Mostly Cloudy FEW020 SCT047 BKN085 BKN140 57.9 50 64 57.9 75% 29.49 998.5
14 08:53 SW 10 10.00 Overcast FEW030 SCT060 BKN080 OVC140 57.9 48.9 72% 29.49 998.6
14 07:53 Calm 10.00 Overcast SCT060 BKN080 OVC120 60.1 46 60% 29.47 997.6
14 06:53 W 13 10.00 Overcast SCT060 BKN095 OVC120 60.1 46.9 62% 29.45 997.0
14 05:53 SW 21 G 30 10.00 Light Rain and Breezy OVC090 61 46 58% 29.44 996.5
14 04:53 W 21 G 38 10.00 Overcast and Breezy OVC095 63 45 52% 29.42 995.8
14 03:53 S 22 G 46 10.00 Breezy NULL 64.9 45 66 63 49% 29.39 994.8
14 02:53 S 25 G 38 10.00 Overcast and Breezy OVC090 64 45 50% 29.39 994.7
14 01:53 S 29 G 43 10.00 Light Rain and Windy NULL 64 46 52% 29.4 995.0
14 00:53 S 29 G 45 10.00 Windy NULL 64.9 45 49% 29.39 994.9
13 23:53 S 22 G 39 10.00 Overcast and Breezy OVC100 64.9 46 51% 29.39 995.0
13 22:53 S 16 G 29 10.00 Partly Cloudy SCT100 64 46 52% 29.4 995.3
13 21:53 S 22 G 28 10.00 Partly Cloudy and Breezy SCT100 SCT120 64 46 68 63 52% 29.42 995.8
13 20:53 S 13 G 24 10.00 Overcast BKN110 OVC150 64 46 52% 29.43 996.5
13 19:53 S 8 10.00 Overcast SCT060 BKN100 OVC170 64.9 45 49% 29.45 997.2
13 18:53 S 10 10.00 Overcast SCT060 BKN100 OVC200 66 45 47% 29.47 997.8
13 17:53 S 12 10.00 Overcast SCT060 BKN100 OVC200 66.9 45 45% 29.5 998.5
13 16:53 S 15 G 22 10.00 Overcast SCT060 BKN090 OVC200 68 44.1 42% 29.53 999.7
13 15:53 S 8 10.00 Overcast FEW055 SCT060 BKN100 OVC200 68 43 68 62.1 40% 29.56 1000.6
13 14:53 E 8 10.00 Overcast FEW055 SCT060 OVC100 66.9 42.1 41% 29.59 1001.5
13 13:53 S 13 10.00 Overcast FEW055 SCT060 OVC100 66 41 40% 29.62 1002.8
13 12:53 SE 9 10.00 A Few Clouds FEW046 FEW060 63 41 45% 29.66 1004.0
13 11:53 S 17 G 25 10.00 Overcast OVC120 63 39 41% 29.67 1004.4
13 10:53 S 22 G 33 10.00 Overcast and Breezy OVC120 64 37.9 38% 29.68 1004.8
13 09:53 S 22 G 36 10.00 Overcast and Breezy OVC120 61 37 61 59 41% 29.69 1005.1
13 08:53 S 23 G 32 10.00 Overcast and Breezy SCT070 BKN110 OVC140 59 37 44% 29.7 1005.4
13 07:53 S 24 G 36 10.00 Overcast and Breezy SCT070 BKN110 OVC140 59 37 44% 29.7 1005.3
13 06:53 S 26 G 43 10.00 Overcast and Windy SCT070 BKN110 OVC150 59 36 42% 29.71 1005.5
13 05:53 S 26 G 44 10.00 Windy NULL 59 36 42% 29.71 1005.5
13 04:53 S 29 G 40 10.00 Windy NULL 59 36 42% 29.7 1005.4
13 03:53 S 29 G 41 10.00 Partly Cloudy and Windy SCT120 59 36 64.9 59 42% 29.7 1005.2
13 02:53 S 31 G 53 10.00 Windy NULL 60.1 36 41% 29.69 1005.1
13 01:53 S 30 G 53 10.00 Windy NULL 61 35.1 38% 29.7 1005.4
13 00:53 S 24 G 44 10.00 Breezy NULL 61 35.1 38% 29.7 1005.1
12 23:53 S 25 G 47 10.00 Breezy NULL 63 35.1 35% 29.7 1005.3
12 22:53 S 33 G 53 10.00 Windy NULL 64 35.1 34% 29.7 1005.4
12 21:53 S 35 G 55 10.00 Fair and Windy CLR 64.9 35.1 73 64.9 33% 29.71 1005.7
12 20:53 S 31 G 46 10.00 Mostly Cloudy and Windy SCT070 SCT100 BKN170 66.9 34 30% 29.72 1006.2
12 19:53 S 29 G 47 10.00 Mostly Cloudy and Windy SCT070 SCT100 BKN170 70 36 29% 29.73 1006.4
12 18:53 S 28 G 45 10.00 Partly Cloudy and Windy SCT070 SCT100 SCT170 72 36 27% 29.73 1006.6
12 17:53 S 26 G 46 10.00 Partly Cloudy and Windy SCT070 SCT100 SCT170 72 36 27% 29.74 1007.2
12 16:53 S 31 G 49 10.00 Partly Cloudy and Windy SCT070 SCT100 SCT170 72 36 27% 29.76 1008.0
12 15:53 S 28 G 39 10.00 Partly Cloudy and Windy SCT070 SCT100 SCT170 72 36 72 64 27% 29.78 1008.6
12 14:53 S 31 G 47 10.00 Partly Cloudy and Windy SCT070 SCT100 SCT170 71.1 37 29% 29.79 1008.9
12 13:53 S 30 G 40 10.00 Partly Cloudy and Windy FEW050 SCT100 71.1 37.9 30% 29.81 1009.4
12 12:53 S 22 G 37 10.00 A Few Clouds and Breezy FEW065 FEW100 70 37 30% 29.84 1010.2
12 11:53 S 17 G 26 10.00 A Few Clouds FEW065 FEW100 FEW200 69.1 37 31% 29.86 1010.8
12 10:53 SE 9 10.00 A Few Clouds FEW065 FEW100 FEW200 66.9 44.1 44% 29.87 1011.3
12 09:53 E 12 10.00 A Few Clouds FEW065 FEW100 FEW200 64 46.9 64 46.9 54% 29.89 1011.7
12 08:53 E 9 10.00 A Few Clouds FEW090 FEW200 61 48 63% 29.9 1012.2
12 07:53 E 7 10.00 A Few Clouds FEW065 FEW080 FEW200 55.9 46.9 72% 29.92 1013.0
12 06:53 E 6 10.00 A Few Clouds FEW080 FEW200 53.1 45 74% 29.93 1013.5
12 05:53 Calm 10.00 Fair CLR 50 41 71% 29.95 1014.2
12 04:53 Calm 10.00 Fair CLR 48 41 77% 29.95 1014.5
12 03:53 S 3 10.00 Fair CLR 48 42.1 66.9 48 80% 29.95 1014.6
12 02:53 S 5 10.00 Fair CLR 51.1 45 80% 29.95 1014.4
Date Time (akdt) Wind (mph) Vis. (mi.) Weather Sky Cond. Air Dwpt Max. Min. Relative Humidity Wind Chill (°F) Heat Index (°F) altimeter (in) sea level (mb) 1 hr 3 hr 6 hr
6 hour
Temperature (ºF) Pressure Precipitation (in)